| time (UTC) | temp F | wind direction | speed MPH | gust MPH | rain 1hr in | rain 24hr in | rain mn in | humidity % | barometer mb |
| 20260906071112 | 63 | 67 | 0.0 | 1.0 | 0.00 | 0.00 | 0.00 | 77 | 1026.8 |
| 20260906070111 | 62 | 225 | 0.0 | 0.0 | 0.00 | 0.00 | 0.00 | 78 | 1026.8 |
| 20260906065111 | 61 | 202 | 0.0 | 0.0 | 0.00 | 0.00 | 0.00 | 78 | 1026.8 |
| 20260906063111 | 60 | 337 | 0.0 | 0.0 | 0.00 | 0.00 | 0.00 | 78 | 1026.4 |
| 20260906062111 | 60 | 45 | 0.0 | 0.0 | 0.00 | 0.00 | 0.00 | 78 | 1025.8 |
| 20260906061111 | 60 | 180 | 0.0 | 0.0 | 0.00 | 0.00 | 0.00 | 79 | 1025.8 |
| 20260906060111 | 59 | 225 | 0.0 | 0.0 | 0.00 | 0.00 | 0.00 | 79 | 1025.9 |
| 20260906055111 | 58 | 292 | 0.0 | 0.0 | 0.00 | 0.00 | 0.00 | 79 | 1025.9 |
| 20260906053111 | 58 | 247 | 0.0 | 0.0 | 0.00 | 0.00 | 0.00 | 80 | 1025.6 |
| 20260906052111 | 58 | 90 | 0.0 | 0.0 | 0.00 | 0.00 | 0.00 | 79 | 1025.9 |
| 20260906050110 | 58 | 202 | 0.0 | 0.0 | 0.00 | 0.00 | 0.00 | 79 | 1026.0 |
| 20260906045110 | 57 | 247 | 0.0 | 0.0 | 0.00 | 0.00 | 0.00 | 79 | 1026.0 |
| 20260906043110 | 58 | 90 | 0.0 | 0.0 | 0.00 | 0.00 | 0.00 | 79 | 1025.6 |
| 20260906042110 | 58 | 67 | 0.0 | 0.0 | 0.00 | 0.00 | 0.00 | 79 | 1025.6 |
| 20260906041110 | 58 | 157 | 0.0 | 0.0 | 0.00 | 0.00 | 0.00 | 79 | 1025.6 |
| 20260906040110 | 58 | 135 | 0.0 | 0.0 | 0.00 | 0.00 | 0.00 | 79 | 1025.9 |
| 20260906034113 | 58 | 180 | 0.0 | 0.0 | 0.00 | 0.00 | 0.00 | 79 | 1026.0 |
| 20260906033112 | 58 | 90 | 0.0 | 1.0 | 0.00 | 0.00 | 0.00 | 79 | 1026.0 |
| 20260906032112 | 58 | 157 | 0.0 | 0.0 | 0.00 | 0.00 | 0.00 | 79 | 1025.2 |
| 20260906031112 | 58 | 22 | 0.0 | 0.0 | 0.00 | 0.00 | 0.00 | 78 | 1025.2 |
| 20260906030113 | 58 | 225 | 0.0 | 0.0 | 0.00 | 0.00 | 0.00 | 79 | 1025.1 |
| 20260906025113 | 58 | 67 | 0.0 | 0.0 | 0.00 | 0.00 | 0.00 | 78 | 1025.1 |
| 20260906024112 | 58 | 112 | 1.0 | 1.0 | 0.00 | 0.00 | 0.00 | 78 | 1025.2 |
| 20260906023112 | 58 | 180 | 0.0 | 0.0 | 0.00 | 0.00 | 0.00 | 78 | 1025.2 |
| 20260906022112 | 59 | 180 | 0.0 | 0.0 | 0.00 | 0.00 | 0.00 | 78 | 1025.2 |
| 20260906020111 | 59 | 90 | 0.0 | 0.0 | 0.00 | 0.00 | 0.00 | 78 | 1025.2 |
| 20260906015111 | 59 | 202 | 0.0 | 0.0 | 0.00 | 0.00 | 0.00 | 78 | 1025.2 |
| 20260906013111 | 59 | 202 | 0.0 | 0.0 | 0.00 | 0.00 | 0.00 | 78 | 1025.1 |
| 20260906012111 | 60 | 22 | 0.0 | 0.0 | 0.00 | 0.00 | 0.00 | 78 | 1025.1 |
| 20260906011111 | 60 | 202 | 0.0 | 0.0 | 0.00 | 0.00 | 0.00 | 77 | 1025.1 |
| 20260906010111 | 60 | 157 | 0.0 | 0.0 | 0.00 | 0.00 | 0.00 | 77 | 1025.1 |
| 20260906005111 | 60 | 202 | 0.0 | 0.0 | 0.00 | 0.00 | 0.00 | 77 | 1025.1 |
| 20260906004111 | 60 | 90 | 0.0 | 1.0 | 0.00 | 0.00 | 0.00 | 77 | 1025.0 |
| 20260906003110 | 60 | 225 | 0.0 | 0.0 | 0.00 | 0.00 | 0.00 | 78 | 1025.0 |
| 20260906002110 | 60 | 157 | 1.0 | 0.0 | 0.00 | 0.00 | 0.00 | 76 | 1025.2 |
| 20260906000112 | 60 | 202 | 0.0 | 0.0 | 0.00 | 0.00 | 0.00 | 77 | 1025.2 |
| 20260905235110 | 60 | 360 | 0.0 | 0.0 | 0.00 | 0.00 | 0.00 | 77 | 1025.2 |
| 20260905234110 | 60 | 90 | 0.0 | 0.0 | 0.00 | 0.00 | 0.00 | 76 | 1025.2 |
| 20260905233110 | 60 | 202 | 0.0 | 0.0 | 0.00 | 0.00 | 0.00 | 76 | 1025.2 |
| 20260905232110 | 60 | 202 | 0.0 | 0.0 | 0.00 | 0.00 | 0.00 | 76 | 1025.1 |
| 20260905231110 | 60 | 202 | 0.0 | 0.0 | 0.00 | 0.00 | 0.00 | 76 | 1025.1 |
| 20260905230110 | 60 | 67 | 0.0 | 0.0 | 0.00 | 0.00 | 0.00 | 76 | 1025.1 |
| 20260905225110 | 60 | 157 | 0.0 | 0.0 | 0.00 | 0.00 | 0.00 | 76 | 1025.1 |
| 20260905224110 | 60 | 157 | 0.0 | 0.0 | 0.00 | 0.00 | 0.00 | 75 | 1025.1 |
| 20260905223110 | 60 | 22 | 0.0 | 0.0 | 0.00 | 0.00 | 0.00 | 75 | 1025.1 |
| 20260905222110 | 60 | 135 | 0.0 | 0.0 | 0.00 | 0.00 | 0.00 | 75 | 1024.9 |
| 20260905221110 | 60 | 225 | 0.0 | 0.0 | 0.00 | 0.00 | 0.00 | 76 | 1024.9 |
| 20260905215115 | 61 | 67 | 0.0 | 0.0 | 0.00 | 0.00 | 0.00 | 75 | 1024.8 |
| 20260905214114 | 61 | 157 | 0.0 | 0.0 | 0.00 | 0.00 | 0.00 | 75 | 1024.8 |
| 20260905213114 | 62 | 157 | 0.0 | 0.0 | 0.00 | 0.00 | 0.00 | 74 | 1024.8 |
| 20260905212114 | 62 | 90 | 0.0 | 1.0 | 0.00 | 0.00 | 0.00 | 75 | 1024.7 |
| 20260905211114 | 62 | 157 | 0.0 | 0.0 | 0.00 | 0.00 | 0.00 | 75 | 1024.7 |
| 20260905210114 | 62 | 202 | 0.0 | 0.0 | 0.00 | 0.00 | 0.00 | 74 | 1024.6 |
| 20260905204114 | 63 | 225 | 0.0 | 0.0 | 0.00 | 0.00 | 0.00 | 74 | 1024.7 |
| 20260905203114 | 63 | 112 | 0.0 | 0.0 | 0.00 | 0.00 | 0.00 | 73 | 1024.7 |
| 20260905202114 | 63 | 225 | 0.0 | 0.0 | 0.00 | 0.00 | 0.00 | 73 | 1024.6 |
| 20260905201114 | 63 | 67 | 0.0 | 1.0 | 0.00 | 0.00 | 0.00 | 72 | 1024.6 |
| 20260905200114 | 64 | 45 | 0.0 | 0.0 | 0.00 | 0.00 | 0.00 | 72 | 1024.6 |
| 20260905194113 | 64 | 112 | 0.0 | 0.0 | 0.00 | 0.00 | 0.00 | 72 | 1024.4 |
| 20260905193114 | 64 | 90 | 0.0 | 0.0 | 0.00 | 0.00 | 0.00 | 72 | 1024.4 |
| 20260905192113 | 64 | 45 | 0.0 | 0.0 | 0.00 | 0.00 | 0.00 | 70 | 1024.4 |
| 20260905191113 | 64 | 202 | 0.0 | 0.0 | 0.00 | 0.00 | 0.00 | 70 | 1024.4 |
| 20260905190113 | 64 | 202 | 0.0 | 0.0 | 0.00 | 0.00 | 0.00 | 70 | 1023.9 |
| 20260905185113 | 64 | 135 | 0.0 | 0.0 | 0.00 | 0.00 | 0.00 | 69 | 1023.9 |
| 20260905184113 | 65 | 202 | 1.0 | 0.0 | 0.00 | 0.00 | 0.00 | 69 | 1023.8 |
| 20260905183114 | 65 | 157 | 0.0 | 2.0 | 0.00 | 0.00 | 0.00 | 68 | 1023.8 |
| 20260905181113 | 65 | 247 | 0.0 | 0.0 | 0.00 | 0.00 | 0.00 | 68 | 1023.6 |
| 20260905175112 | 66 | 202 | 0.0 | 0.0 | 0.00 | 0.00 | 0.00 | 65 | 1023.5 |
| 20260905174112 | 66 | 135 | 0.0 | 0.0 | 0.00 | 0.00 | 0.00 | 64 | 1023.4 |
| 20260905173113 | 66 | 202 | 0.0 | 0.0 | 0.00 | 0.00 | 0.00 | 63 | 1023.4 |
| 20260905172113 | 67 | 202 | 0.0 | 0.0 | 0.00 | 0.00 | 0.00 | 62 | 1023.6 |
| 20260905171112 | 67 | 202 | 0.0 | 0.0 | 0.00 | 0.00 | 0.00 | 62 | 1023.6 |
| 20260905170112 | 67 | 45 | 0.0 | 0.0 | 0.00 | 0.00 | 0.00 | 61 | 1023.4 |
| 20260905165112 | 68 | 247 | 1.0 | 0.0 | 0.00 | 0.00 | 0.00 | 62 | 1023.4 |
| 20260905163112 | 68 | 315 | 1.0 | 2.0 | 0.00 | 0.00 | 0.00 | 60 | 1023.2 |
| 20260905162112 | 68 | 247 | 2.0 | 2.0 | 0.00 | 0.00 | 0.00 | 59 | 1023.1 |
| 20260905161113 | 69 | 292 | 3.0 | 4.0 | 0.00 | 0.00 | 0.00 | 59 | 1023.1 |
| 20260905160112 | 68 | 270 | 3.0 | 5.0 | 0.00 | 0.00 | 0.00 | 57 | 1023.2 |
| 20260905155113 | 68 | 315 | 3.0 | 5.0 | 0.00 | 0.00 | 0.00 | 60 | 1023.2 |
| 20260905154112 | 67 | 337 | 3.0 | 3.0 | 0.00 | 0.00 | 0.00 | 61 | 1023.4 |
| 20260905153112 | 67 | 270 | 3.0 | 6.0 | 0.00 | 0.00 | 0.00 | 63 | 1023.4 |
| 20260905152111 | 66 | 247 | 4.0 | 2.0 | 0.00 | 0.00 | 0.00 | 64 | 1023.0 |
| 20260905151111 | 66 | 292 | 4.0 | 5.0 | 0.00 | 0.00 | 0.00 | 64 | 1023.0 |
| 20260905150111 | 67 | 45 | 5.0 | 3.0 | 0.00 | 0.00 | 0.00 | 62 | 1022.8 |
| 20260905145111 | 67 | 270 | 5.0 | 6.0 | 0.00 | 0.00 | 0.00 | 62 | 1022.8 |
| 20260905144111 | 68 | 337 | 7.0 | 8.0 | 0.00 | 0.00 | 0.00 | 61 | 1022.4 |
| 20260905143111 | 68 | 315 | 6.0 | 9.0 | 0.00 | 0.00 | 0.00 | 63 | 1022.4 |
| 20260905140111 | 71 | 337 | 6.0 | 11.0 | 0.00 | 0.00 | 0.00 | 55 | 1021.6 |
| 20260905135110 | 72 | 247 | 6.0 | 5.0 | 0.00 | 0.00 | 0.00 | 55 | 1021.6 |
| 20260905134110 | 72 | 337 | 5.0 | 8.0 | 0.00 | 0.00 | 0.00 | 54 | 1021.4 |
| 20260905133110 | 73 | 292 | 7.0 | 13.0 | 0.00 | 0.00 | 0.00 | 53 | 1021.4 |
| 20260905132110 | 74 | 360 | 5.0 | 11.0 | 0.00 | 0.00 | 0.00 | 51 | 1021.3 |
| 20260905131115 | 75 | 360 | 5.0 | 8.0 | 0.00 | 0.00 | 0.00 | 50 | 1021.3 |
| 20260905130115 | 75 | 292 | 5.0 | 8.0 | 0.00 | 0.00 | 0.00 | 49 | 1021.3 |
| 20260905125115 | 76 | 360 | 3.0 | 2.0 | 0.00 | 0.00 | 0.00 | 50 | 1021.3 |
| 20260905124117 | 75 | 360 | 3.0 | 4.0 | 0.00 | 0.00 | 0.00 | 51 | 1021.4 |
| 20260905123115 | 75 | 67 | 3.0 | 4.0 | 0.00 | 0.00 | 0.00 | 51 | 1021.4 |
| 20260905122115 | 75 | 270 | 4.0 | 4.0 | 0.00 | 0.00 | 0.00 | 50 | 1021.3 |
| 20260905121115 | 75 | 337 | 2.0 | 8.0 | 0.00 | 0.00 | 0.00 | 51 | 1021.3 |
| 20260905115114 | 75 | 360 | 2.0 | 5.0 | 0.00 | 0.00 | 0.00 | 54 | 1021.6 |
| 20260905114115 | 74 | 292 | 3.0 | 4.0 | 0.00 | 0.00 | 0.00 | 56 | 1021.7 |
| 20260905113115 | 74 | 247 | 2.0 | 3.0 | 0.00 | 0.00 | 0.00 | 58 | 1021.7 |
| 20260905105114 | 69 | 157 | 1.0 | 0.0 | 0.00 | 0.00 | 0.00 | 67 | 1021.9 |
| 20260905104114 | 69 | 337 | 0.0 | 2.0 | 0.00 | 0.00 | 0.00 | 69 | 1022.0 |
| 20260905102114 | 67 | 247 | 0.0 | 1.0 | 0.00 | 0.00 | 0.00 | 71 | 1022.2 |
| 20260905101113 | 66 | 112 | 0.0 | 0.0 | 0.00 | 0.00 | 0.00 | 71 | 1022.2 |
| 20260905100113 | 66 | 157 | 0.0 | 0.0 | 0.00 | 0.00 | 0.00 | 72 | 1022.2 |
| 20260905094113 | 65 | 225 | 1.0 | 0.0 | 0.00 | 0.00 | 0.00 | 74 | 1022.1 |
| 20260905093113 | 64 | 135 | 1.0 | 1.0 | 0.00 | 0.00 | 0.00 | 75 | 1022.1 |
| 20260905092113 | 64 | 180 | 1.0 | 0.0 | 0.00 | 0.00 | 0.00 | 73 | 1022.2 |
| 20260905091113 | 64 | 157 | 1.0 | 2.0 | 0.00 | 0.00 | 0.00 | 74 | 1022.2 |
| 20260905090113 | 64 | 135 | 0.0 | 1.0 | 0.00 | 0.00 | 0.00 | 75 | 1021.9 |
| 20260905085113 | 63 | 270 | 0.0 | 0.0 | 0.00 | 0.00 | 0.00 | 73 | 1021.9 |
| 20260905083113 | 63 | 315 | 2.0 | 2.0 | 0.00 | 0.00 | 0.00 | 74 | 1021.7 |
| 20260905082113 | 63 | 315 | 3.0 | 4.0 | 0.00 | 0.00 | 0.00 | 73 | 1021.5 |
| 20260905081113 | 63 | 292 | 3.0 | 3.0 | 0.00 | 0.00 | 0.00 | 71 | 1021.5 |
| 20260905080112 | 64 | 315 | 4.0 | 5.0 | 0.00 | 0.00 | 0.00 | 71 | 1020.9 |
| 20260905075112 | 65 | 360 | 4.0 | 9.0 | 0.00 | 0.00 | 0.00 | 64 | 1020.9 |
| 20260905074113 | 65 | 292 | 4.0 | 3.0 | 0.00 | 0.00 | 0.00 | 64 | 1020.5 |
| 20260905073113 | 65 | 360 | 2.0 | 3.0 | 0.00 | 0.00 | 0.00 | 64 | 1020.5 |